This is the latest recevied weather packets stored in our database for station/object K4PAD. If no packets are shown the sender has not sent any weather packets the latest 10 day(s).
| Time | Temp. | Humidity | Pressure | Rain* | Wind** | Luminosity | Snow |
|---|---|---|---|---|---|---|---|
| 1787784812 | 26.11° C | 87% | 1016.5 hPa | 0 mm | - | 108 W/m² | - |
| 1787784511 | 26.11° C | 86% | 1016.6 hPa | 0 mm | - | 109 W/m² | - |
| 1787784206 | 26.11° C | 87% | 1016.5 hPa | 0 mm | - | 114 W/m² | - |
| 1787783901 | 25.56° C | 88% | 1016.3 hPa | 0 mm | - | 125 W/m² | - |
| 1787783597 | 25.56° C | 89% | 1016.2 hPa | 0 mm | - | 130 W/m² | - |
| 1787783291 | 25.56° C | 89% | 1016 hPa | 0 mm | - | 134 W/m² | - |
| 1787782987 | 25.56° C | 89% | 1016.2 hPa | 0 mm | - | 139 W/m² | - |
| 1787782686 | 25.56° C | 88% | 1016.2 hPa | 0 mm | - | 142 W/m² | - |
| 1787782382 | 25.56° C | 89% | 1016.4 hPa | 0 mm | - | 142 W/m² | - |
| 1787782077 | 25.56° C | 88% | 1016.5 hPa | 3.05 mm | - | 138 W/m² | - |
| 1787781772 | 26.11° C | 86% | 1016.4 hPa | 7.87 mm | - | 135 W/m² | - |
| 1787781470 | 26.67° C | 84% | 1016.5 hPa | 6.1 mm | - | 124 W/m² | - |
| 1787781169 | 27.78° C | 78% | 1016.5 hPa | 0 mm | - | 111 W/m² | - |
| 1787780867 | 28.33° C | 73% | 1016.6 hPa | 0 mm | - | 84 W/m² | - |
| 1787780562 | 28.89° C | 73% | 1016.7 hPa | 0 mm | - | 63 W/m² | - |
| 1787780258 | 29.44° C | 72% | 1016.9 hPa | 0 mm | - | 50 W/m² | - |
| 1787779954 | 30.56° C | 68% | 1016.9 hPa | 0 mm | - | 38 W/m² | - |
| 1787779648 | 32.22° C | 62% | 1016.5 hPa | 0 mm | - | 38 W/m² | - |
| 1787779347 | 32.78° C | 53% | 1016.2 hPa | 0 mm | - | 113 W/m² | - |
| 1787779042 | 32.78° C | 53% | 1016 hPa | 0 mm | - | 160 W/m² | - |
| 1787778738 | 33.33° C | 54% | 1016.1 hPa | 0 mm | - | 211 W/m² | - |
| 1787778434 | 33.33° C | 52% | 1015.9 hPa | 0 mm | - | 293 W/m² | - |
| 1787778129 | 33.33° C | 54% | 1016.3 hPa | 0 mm | - | 324 W/m² | - |
| 1787777828 | 33.33° C | 52% | 1016.4 hPa | 0 mm | - | 392 W/m² | - |
| 1787777525 | 33.89° C | 51% | 1016.4 hPa | 0 mm | - | 429 W/m² | - |
* Rain latest hour (hover to see other rain measurements)
** Current wind speed in m/s (hover to see current wind gust speed)